Location: Ferchesar
(52.6477°N, 12.4298°E)
Time: 13:43:19
(UTC+01:00)

Vanguard 2 Rocket - Pass Details

Date: 07 December 2021
Orbit: 554 x 3324 km, 32.9° (Epoch: 17 January)

Event Time Altitude Azimuth Distance (km) Brightness Sun altitude
Rises 20:08:03 0° 240° (WSW) 3,668 10.6 -36.8°
Reaches altitude 10° 20:11:12 10° 221° (SW) 3,072 9.9 -37.3°
Enters shadow 20:14:48 18° 192° (SSW) 2,915 9.4 -37.8°
